DELTA 1 DEB

Satellite information

Favourite Embed

Satellite Type and Status

DEBRISIN ORBIT

Key statistics

Satellite DELTA 1 DEB at a glance.

Uptime

17229

Days in orbit

Revolutions

≈ 14.4

Per day

Orbit

SSO

Sun Synchronous Orbit

Inclination

98.7

Latest

Satellite identification and parameters

Extended collection of information and parameters for DELTA 1 DEB.

Object identification

Identified? True

Debris? True

Object name: DELTA 1 DEB

International designator: 1978-026EZ

Object number (NORAD): 13562

Object ID (CCSDS): 13562

Country: UNITED STATES OF AMERICA (US)

Current information (Y/N): Y

RCS size: SMALL

Orbital parameters

Period: 100.33 minutes

Inclination: 98.7351 deg

SMA: 7152.35 km

Apoapsis: 799.17 km

Periapsis: 749.259 km

RAAN: 150.1122 deg

Eccentricy: 0.0034891

Argument of periapsis: 203.9972 deg

Mean anomaly: 279.5519 deg

Mean motion: 14.35256985 rev/day

Mean motion (dot): 0.00001639 rev/day2

B* drag term: 0.00058436 1/REarth

Two-line elements (TLE)

Creation date: May 6, 2025, 3:54 a.m.

Reference frame: TEME

Reference center: EARTH

Epoch: May 5, 2025, 2:56 p.m. UTC

TLE line 0: 0 DELTA 1 DEB

TLE line 1: 1 13562U 78026EZ 25125.62260059 .00001639 00000-0 58436-3 0 9993

TLE line 2: 2 13562 98.7351 150.1122 0034891 203.9972 279.5519 14.35256985295531

Live tracking on map

Real-time ground track for satellite DELTA 1 DEB.

In-orbit conjunctions

A list of the most updated potential collisions computed for object DELTA 1 DEB.

Target Orbit TCA Probability of collision Miss distance Type
CZ-2D DEB SSO 2024-09-10 16:20:20 0.000140115 43.0 (m) DEBRIS

Associated space launch

Earth observation satellite

DELTA 1 DEB was lifted into orbit during the mission ‘Delta 2910 | Landsat 3’, on board a Delta 2910 space rocket.

The launch took place on March 5, 1978, 5:54 p.m. from Space Launch Complex 2W.

For more information about the launch, click the button.

Launch to space Delta 2910 | Landsat 3
Delta 2910 | Landsat 3

Agency: N/A

Status: Launch Successful

Launch date: March 5, 1978, 5:54 p.m. UTC

Rocket: Delta 2910

Launch pad: Space Launch Complex 2W

Location: Vandenberg SFB, CA, USA

...

Latest news about this satellite

There are no fresh news available about this satellite. Check back as we update our databases every day.


Newsletter sign-up

Weekly statistics, charts and insights to help you stay on top of the space industry.